ECMWFNIL_925_temp_132.txt.gz
Temp
16 16 15 15 15 16 16 15 15 15 15 15 15 15 16 16 15 15 15 15 15 15 15 15 15 15 14 14 14 14 14 13 14 14 13 13 13 13 13 13 13 13
16 15 15 15 15 15 15 15 15 15 15 15 15 16 16 15 15 15 15 15 15 15 15 15 15 15 14 14 14 13 13 13 13 13 13 12 13 13 13 13 13 13
16 15 15 15 15 15 15 15 15 15 15 15 15 15 15 15 15 15 15 15 15 15 15 15 15 15 14 14 14 13 13 13 13 13 12 12 12 12 13 13 13 13
16 15 15 15 15 15 15 15 15 15 15 15 15 15 15 15 15 15 15 15 15 15 15 15 15 15 14 14 14 13 13 13 13 13 12 12 13 13 13 13 13 13
16 16 15 15 15 15 15 15 15 15 15 15 15 15 15 15 14 14 14 14 14 14 14 14 14 14 14 14 13 13 13 13 13 13 13 13 13 13 13 13 13 13
16 16 15 15 15 15 15 15 15 15 15 15 15 15 15 15 14 14 14 14 14 14 14 14 14 14 14 14 13 13 13 13 13 13 13 13 13 13 13 13 13 13
16 16 15 15 15 15 15 15 15 15 15 15 15 15 14 14 14 14 14 14 14 14 14 14 14 14 14 14 13 13 13 13 13 14 13 13 13 13 13 13 13 13
16 16 15 15 15 15 15 15 14 14 14 14 14 14 14 14 14 14 14 14 14 14 14 14 14 14 14 14 14 14 14 14 14 14 14 14 14 14 13 13 13 13
16 15 15 15 15 15 15 15 15 14 14 14 14 14 14 14 14 14 14 14 14 14 14 14 14 13 14 14 14 14 14 14 14 14 14 14 14 13 13 13 13 13
15 15 15 15 15 15 15 15 15 14 14 14 14 14 14 14 14 14 14 14 14 14 14 13 13 13 13 13 14 14 14 14 14 14 14 14 14 13 13 13 13 13
15 15 15 15 15 15 15 15 15 14 14 14 14 14 14 14 14 14 14 14 13 14 13 13 14 13 13 13 13 14 14 14 14 14 14 14 14 14 14 13 13 13
15 15 14 15 14 14 14 14 14 14 14 14 14 14 14 14 14 14 14 13 13 14 13 14 14 14 14 14 13 13 13 14 14 13 13 13 13 14 13 13 13 13
15 15 14 14 14 14 14 14 14 14 14 14 14 14 13 13 13 13 13 13 14 14 14 14 13 13 13 13 13 14 13 13 13 13 13 13 13 13 13 13 13 12
15 14 13 13 13 13 13 13 13 13 13 13 13 13 13 13 13 13 13 13 13 13 13 13 13 13 13 13 13 13 13 13 13 13 13 13 13 13 13 13 12 12
14 14 13 13 13 13 13 13 13 12 12 12 12 12 13 13 13 13 13 13 13 13 13 13 13 13 13 13 13 13 13 13 13 13 13 13 13 13 13 12 12 12
13 13 13 13 13 13 12 12 12 12 11 11 11 12 12 12 12 12 12 13 13 13 13 13 13 13 13 13 13 13 13 13 13 13 13 13 12 12 12 12 12 12
12 12 12 12 12 12 12 12 12 11 10 10 11 11 10 11 11 12 12 12 12 12 13 13 13 13 13 13 13 13 12 12 12 12 12 12 12 12 12 11 11 11
12 11 11 12 12 12 11 11 10 9 9 9 9 10 10 10 11 11 11 12 12 12 12 12 12 13 13 12 12 12 12 12 12 12 12 12 12 11 11 11 11 11
12 11 11 11 11 11 10 9 8 8 8 9 9 9 10 10 11 11 11 11 12 12 12 12 12 12 12 12 12 12 12 12 12 11 11 12 11 11 11 11 11 11
12 12 11 11 10 9 8 7 7 7 8 8 9 9 9 10 10 10 11 11 11 12 12 12 12 12 12 12 12 12 11 11 11 11 11 11 11 11 11 11 11 11
13 12 10 9 8 7 6 6 6 6 6 7 7 8 8 9 9 10 10 10 11 11 11 11 11 11 11 11 11 11 11 11 10 10 10 10 10 10 11 11 10 10
12 11 8 6 6 5 5 5 5 5 5 6 6 6 7 7 8 8 9 10 10 10 10 10 10 10 11 11 10 10 11 10 10 10 10 10 10 10 10 10 9 9
10 10 8 6 5 5 5 5 5 5 5 5 6 6 6 7 7 8 8 9 9 9 9 9 9 9 9 9 10 10 10 10 10 10 10 9 9 9 9 8 8 7
10 9 8 7 5 5 5 4 4 4 5 5 6 6 6 6 7 7 7 8 8 9 9 9 9 9 9 9 9 9 9 10 10 9 9 9 8 8 7 7 7 7
10 8 8 7 6 6 5 4 4 4 4 5 6 6 6 6 6 7 7 7 8 9 9 9 9 9 9 9 9 9 9 9 9 9 8 7 7 6 6 6 7 7
10 8 8 8 8 6 5 4 3 4 4 4 5 6 6 6 7 7 7 8 8 8 8 9 9 9 9 8 8 8 8 8 8 8 7 7 6 6 6 7 7 7

ECMWFNIL_925_temp_138.txt.gz
Temp
16 16 16 16 16 16 16 16 16 16 16 16 16 16 16 16 16 15 15 14 14 14 14 14 13 13 13 13 13 13 13 14 14 14 14 13 13 13 13 13 13 13
16 15 15 15 16 16 16 16 16 16 16 16 16 16 16 16 16 15 15 15 14 14 14 14 14 13 13 13 13 13 13 13 13 13 13 13 13 13 13 13 13 13
16 15 15 15 16 16 16 16 16 16 16 16 16 16 16 16 16 15 15 15 14 14 13 13 14 13 13 13 13 13 13 13 13 13 13 13 13 13 13 13 13 13
16 15 15 15 15 15 15 15 15 15 15 15 15 16 15 15 15 15 15 15 14 14 13 13 14 13 13 13 13 13 13 13 13 13 13 12 12 12 13 13 12 12
16 16 15 15 15 15 15 15 15 15 15 15 15 15 15 15 15 15 15 14 14 14 14 13 14 13 13 13 13 13 13 13 13 13 13 12 12 12 12 12 12 12
16 15 15 15 15 15 15 15 15 15 15 15 15 15 15 15 15 15 14 14 14 14 14 14 13 13 13 13 13 13 13 13 13 13 12 12 12 12 12 12 12 12
15 15 15 15 15 15 15 15 15 15 15 15 15 15 15 15 15 15 14 14 14 14 14 14 13 13 13 13 13 13 13 13 13 13 12 12 12 12 12 12 12 12
15 15 15 15 15 15 15 15 15 15 15 15 15 15 15 15 14 14 14 14 14 14 14 13 13 13 13 13 13 13 13 13 13 12 12 12 12 12 12 12 12 12
15 15 15 15 15 15 15 15 15 15 15 15 15 15 15 14 14 14 14 14 13 13 13 13 13 13 13 13 13 12 12 12 12 12 12 12 12 12 12 12 12 12
15 15 15 15 15 15 15 15 15 15 14 14 14 14 14 14 14 14 13 13 13 13 13 13 13 13 13 13 13 12 12 12 12 12 12 12 12 12 12 12 12 12
16 16 16 16 16 15 15 15 14 14 14 14 14 14 14 13 13 13 13 13 13 13 13 13 13 13 13 13 13 12 12 12 12 13 12 12 12 12 12 12 12 12
17 17 17 17 17 16 16 15 14 13 13 13 13 13 13 13 13 13 13 13 13 12 13 13 12 12 12 12 12 12 12 12 12 13 13 12 12 12 12 12 12 12
18 18 18 18 18 17 17 16 15 14 13 13 12 12 12 13 13 13 12 12 12 12 12 12 12 12 12 12 12 12 12 12 12 12 12 12 12 12 13 13 13 13
18 17 17 18 18 18 18 17 16 15 13 12 12 12 12 12 12 12 12 12 12 12 12 12 12 12 12 12 12 12 12 12 12 12 12 12 13 13 13 13 13 13
17 17 17 17 18 18 18 17 16 15 14 13 12 12 11 11 12 12 12 12 12 12 12 12 12 13 13 13 13 13 13 13 13 13 13 12 12 12 13 13 13 13
17 17 17 17 17 17 17 16 15 15 14 13 13 12 11 11 11 11 12 12 12 12 12 12 12 12 13 13 13 13 13 13 12 12 13 13 12 12 12 13 13 13
16 16 16 16 16 17 17 16 14 13 14 13 12 10 9 9 10 11 11 11 12 12 12 12 12 12 12 13 13 13 13 13 13 12 12 12 12 12 12 12 12 13
16 16 16 16 17 17 16 14 12 12 13 12 12 10 9 9 9 10 10 11 11 11 11 12 12 12 12 12 12 13 13 13 13 12 12 12 12 12 12 12 12 12
16 16 16 16 16 15 14 13 11 11 11 11 11 10 9 8 9 9 9 10 10 11 11 11 11 12 12 12 12 12 12 12 12 12 12 12 12 12 12 12 12 12
15 14 14 15 14 14 13 12 11 11 11 10 9 8 7 8 8 8 8 9 10 10 10 11 11 11 11 12 12 12 12 12 12 12 12 12 12 12 12 12 12 12
13 13 13 13 13 12 11 11 10 10 10 9 8 7 6 7 8 8 8 8 9 9 10 10 10 11 11 11 11 12 12 12 12 12 11 11 11 12 12 12 12 12
12 12 12 12 12 11 10 10 10 10 9 8 6 5 5 6 7 7 7 7 7 8 9 9 9 10 10 10 11 11 11 12 11 11 11 11 11 11 11 11 11 12
11 11 11 11 11 10 10 10 10 9 9 7 6 5 4 5 5 6 6 6 6 7 7 8 8 8 9 9 10 10 11 11 11 11 11 11 11 11 11 11 11 11
12 11 11 11 10 10 10 10 9 9 8 7 6 5 5 5 5 5 5 6 6 6 7 7 7 8 8 9 9 10 10 11 11 10 10 10 10 10 10 10 11 11
11 11 11 11 10 10 10 10 9 9 8 7 6 6 5 5 5 4 5 5 6 6 7 7 7 8 8 9 9 10 10 10 10 10 10 10 10 9 9 10 10 11
11 11 10 10 10 10 10 9 9 8 8 7 6 6 5 4 4 4 4 5 5 6 6 7 7 8 8 9 9 10 10 10 10 10 9 9 9 9 9 9 9 9

ECMWFNIL_925_temp_141.txt.gz
Temp
18 18 18 18 18 18 18 18 18 18 18 18 18 18 17 17 17 17 16 16 16 16 16 15 15 15 15 15 15 15 15 16 16 16 16 15 15 15 15 15 15 15
18 18 18 18 18 18 18 18 18 18 18 18 18 18 18 18 17 17 17 16 16 16 16 15 15 15 15 15 15 15 15 15 15 16 16 16 15 15 15 15 15 15
18 18 17 17 17 17 17 17 18 18 18 18 18 18 18 18 17 17 17 16 16 16 16 15 15 15 15 14 14 14 14 15 15 15 15 15 15 15 15 15 15 15
18 17 17 17 17 17 17 17 17 17 17 17 17 17 17 17 17 17 16 16 16 16 15 15 15 15 15 15 14 14 14 14 14 14 14 15 15 15 15 15 15 14
17 17 17 17 17 17 17 17 17 17 17 17 17 17 17 17 17 16 16 16 16 16 15 15 15 15 15 15 15 14 14 14 14 14 14 14 14 14 14 14 14 14
17 17 17 17 17 17 16 17 17 17 17 17 17 17 17 16 16 16 16 16 16 15 15 15 15 15 15 15 15 14 14 14 14 14 14 14 14 14 14 13 13 14
17 17 17 17 16 16 16 16 16 16 16 16 16 16 16 16 16 16 16 16 15 15 15 15 15 15 15 15 15 14 14 14 14 14 14 14 14 14 13 13 13 13
16 16 16 16 16 16 16 16 16 16 16 16 16 16 16 16 16 16 16 15 15 15 15 15 15 15 15 15 15 14 14 14 14 14 14 14 14 13 13 13 13 13
16 16 16 16 16 16 16 16 16 16 16 16 16 16 16 16 16 16 16 15 15 15 15 15 15 15 15 15 15 15 14 14 14 14 14 14 14 13 13 13 13 13
15 16 16 16 16 16 16 16 16 16 16 16 16 15 15 15 15 15 15 15 15 15 15 15 15 14 14 15 15 15 14 14 14 14 13 13 14 13 13 13 13 12
15 15 15 15 15 15 15 16 16 16 16 16 15 15 15 15 15 15 15 15 15 15 15 14 14 14 14 14 14 14 14 14 14 14 13 13 13 13 13 13 12 12
14 14 15 15 15 15 15 15 15 15 15 15 15 15 15 15 15 15 15 15 14 14 14 14 14 14 14 14 14 14 14 14 14 13 13 13 13 13 13 13 12 12
16 15 16 16 16 17 17 16 15 15 15 15 15 15 15 15 15 15 15 14 14 14 14 14 14 14 14 14 14 14 14 14 14 13 13 13 13 13 12 12 12 12
17 17 17 17 17 17 17 17 16 15 14 14 14 14 15 15 15 14 14 14 13 13 13 13 13 13 13 14 14 13 13 13 13 13 13 13 13 12 12 12 12 12
16 16 16 17 17 17 17 17 16 15 15 14 14 14 15 15 14 13 13 12 12 12 12 12 12 13 13 13 13 13 13 13 13 13 12 12 12 12 12 12 12 12
15 15 15 15 15 15 15 15 15 14 14 14 14 14 14 14 14 12 11 11 11 11 11 12 12 12 12 12 12 12 12 12 12 12 12 12 12 12 12 12 12 12
14 14 14 14 15 15 15 14 14 14 14 13 13 13 14 14 13 12 11 10 10 10 11 11 11 11 11 12 12 12 12 12 12 12 12 12 12 12 12 12 12 12
13 13 13 13 13 14 13 13 13 13 14 14 14 14 13 13 12 11 11 10 9 9 10 10 10 11 11 11 11 12 12 12 12 12 12 12 12 12 12 12 12 12
12 12 12 12 13 12 12 12 12 12 13 13 13 13 12 12 11 11 11 10 8 8 8 9 9 10 10 11 11 11 12 12 12 12 12 12 12 12 12 12 12 12
12 12 12 12 13 12 12 11 11 12 12 12 11 11 10 10 11 11 11 10 8 7 7 8 8 9 9 10 10 11 11 11 12 12 12 12 12 12 12 12 12 12
12 12 12 12 13 12 12 11 11 11 11 11 11 10 9 9 9 9 9 9 8 7 6 7 8 8 8 9 9 10 10 11 11 11 11 11 11 11 11 12 12 12
12 11 11 12 12 11 11 12 12 11 11 11 10 9 9 8 8 8 8 8 7 6 5 6 9 9 7 7 8 9 9 10 10 11 11 11 11 11 11 11 11 11
11 11 11 11 10 10 11 11 11 11 11 11 10 9 9 8 8 8 8 7 6 5 5 6 9 9 8 7 7 8 8 9 9 10 10 10 10 10 10 11 11 11
10 10 10 10 10 9 10 10 10 10 10 10 9 9 9 8 8 7 7 6 5 5 5 5 7 9 9 7 7 7 7 8 8 9 9 9 9 10 10 10 10 10
10 9 9 9 9 9 9 9 9 9 9 9 8 8 8 8 8 7 6 6 5 5 5 4 5 7 7 7 6 6 6 7 7 8 8 8 8 9 9 9 9 10
9 9 9 9 8 8 8 8 8 8 8 7 7 7 7 7 7 6 6 6 5 5 5 5 4 5 5 5 5 5 6 6 7 7 7 8 8 8 8 8 8 9

ECMWFNIL_925_temp_144.txt.gz
Temp
18 18 18 18 18 18 18 18 18 19 19 18 18 18 18 17 17 17 17 16 16 16 16 16 16 15 15 15 15 15 15 15 15 16 16 15 15 15 15 15 15 15
18 18 18 18 18 18 18 18 18 18 19 19 18 18 18 18 18 17 17 17 17 16 16 16 16 16 15 15 15 15 15 15 15 15 16 15 15 15 15 15 15 15
18 18 18 18 18 18 18 18 18 18 18 18 18 18 18 18 18 18 18 17 17 17 16 16 16 16 16 15 15 15 15 15 15 15 15 15 15 15 15 15 15 15
18 18 18 18 18 18 18 18 18 18 18 18 18 18 18 18 18 18 18 17 17 17 16 16 16 16 16 15 15 15 15 15 15 15 15 15 15 15 15 15 15 15
18 18 18 18 18 18 18 18 18 18 18 18 18 18 18 18 18 18 18 17 17 17 16 16 16 16 15 15 15 15 15 15 15 15 15 15 15 15 15 15 15 15
18 18 18 18 18 18 17 17 17 17 17 17 17 17 17 17 17 17 17 17 17 17 16 16 16 16 15 15 15 15 15 14 14 15 14 14 14 14 14 15 15 14
17 17 17 17 17 17 17 17 17 17 17 17 17 17 17 17 17 17 17 17 17 16 16 16 16 16 15 15 15 15 15 14 14 14 14 14 14 14 14 14 14 14
17 17 17 17 17 17 17 17 17 17 17 17 17 17 17 17 17 17 17 17 16 16 16 16 16 16 15 15 15 15 15 15 14 14 14 14 14 14 14 14 14 14
16 16 16 16 17 17 17 17 17 17 16 16 17 16 16 16 16 16 16 16 16 16 16 16 16 15 15 15 15 15 15 15 15 14 14 14 14 14 13 13 13 13
15 16 16 16 16 16 16 16 16 16 16 16 16 16 16 16 16 16 16 16 16 16 16 16 15 15 15 15 15 15 15 15 14 14 14 14 14 14 13 13 13 13
15 15 15 15 16 16 16 16 16 16 16 16 16 16 16 16 16 16 16 16 16 16 15 15 15 15 15 15 15 15 15 15 14 14 14 14 14 14 13 13 13 13
14 14 15 15 15 15 15 16 16 16 16 16 16 16 16 16 16 16 16 15 15 15 15 15 15 15 15 15 15 14 14 14 14 14 14 14 14 14 13 13 13 13
14 14 14 14 14 14 15 15 15 15 15 15 15 15 15 15 15 15 15 15 15 15 15 15 15 15 15 14 14 14 14 14 14 14 14 14 14 14 14 13 13 13
15 14 14 14 14 14 14 14 14 14 14 14 14 14 14 14 14 14 14 15 15 15 15 15 14 14 14 14 14 14 14 14 14 14 13 13 13 13 13 13 13 13
16 15 15 15 14 14 14 14 14 14 14 14 14 14 14 14 14 14 13 13 14 14 14 14 14 14 14 14 14 14 13 13 13 13 13 13 13 13 13 13 13 13
15 16 16 16 16 16 15 15 15 14 14 14 14 14 14 13 13 13 13 13 13 13 13 13 13 13 13 13 13 13 13 13 13 13 13 13 13 13 13 12 12 12
14 14 15 15 15 15 15 14 14 14 14 14 14 14 13 13 13 12 13 12 12 12 12 12 12 12 11 11 11 12 12 12 12 12 12 12 12 12 12 12 12 12
12 12 12 12 12 12 13 13 13 13 14 14 14 14 13 12 12 12 12 12 11 11 11 11 11 11 10 10 10 10 11 11 11 11 11 11 11 11 11 12 12 12
12 11 11 11 11 11 11 11 11 12 12 12 12 12 12 11 11 11 11 11 10 10 10 10 10 10 10 9 9 9 10 10 10 11 11 11 11 11 11 11 11 11
11 11 11 11 11 10 10 10 10 10 11 10 10 10 10 10 10 10 10 10 9 10 10 10 10 10 10 9 8 8 8 9 10 10 11 11 11 11 11 11 11 11
11 10 10 10 10 10 10 10 10 10 10 10 9 9 9 9 9 9 9 9 8 8 9 9 10 10 10 10 9 8 7 8 9 9 10 10 10 10 10 11 11 11
10 10 10 10 9 9 9 9 9 9 9 9 8 8 9 9 8 8 8 8 8 7 7 7 8 8 9 9 8 7 6 6 7 8 8 9 9 10 10 10 10 10
9 9 9 9 9 9 9 9 9 9 9 9 8 8 9 9 8 8 8 7 7 7 6 6 7 6 7 8 6 5 5 5 6 7 7 8 8 8 9 9 9 10
9 8 8 8 8 8 8 8 8 9 9 8 8 8 9 9 8 9 9 8 7 7 7 6 6 6 5 6 6 5 4 4 5 6 6 7 7 7 7 8 8 9
8 8 8 8 8 8 7 7 8 8 8 8 7 7 8 8 8 7 8 9 8 7 7 6 7 7 5 4 5 5 4 4 4 5 5 6 6 6 6 7 7 8
8 8 7 7 7 7 7 7 7 8 8 7 8 7 7 7 7 6 7 8 8 7 7 6 6 6 6 5 4 4 4 3 3 4 5 5 5 5 6 6 6 6